Weather History for Danville, VA

Change the Weather History Date:

Wednesday, August 21, 2013

  Actual Average Record
Temperature  
Mean Temperature 77 °F 77 °F  
Max Temperature 84 °F 86 °F 104 °F (1983)
Min Temperature 69 °F 68 °F 53 °F (1981)
Degree Days  
Heating Degree Days 0 0  
Month to date heating degree days 0 0  
Since 1 June heating degree days 0 3  
Since 1 July heating degree days 0 0  
Cooling Degree Days 12 12  
Month to date cooling degree days 215 266  
Year to date cooling degree days 1105 1119  
Since 1 June cooling degree days 943 975  
Growing Degree Days 26 (Base 50)    
Moisture  
Dew Point 69 °F    
Average Humidity 81    
Maximum Humidity 97    
Minimum Humidity 65    
Precipitation  
Precipitation 0.07 in 0.14 in 2.17 in (1961)
Month to date precipitation 3.45 2.58  
Year to date precipitation 41.10 28.90  
Snow  
Snow 0.00 in - - ()
Month to date snowfall 0.0  
Since 1 June snowfall 0.0  
Since 1 July snowfall 0.0  
Snow Depth 0.00 in    
Sea Level Pressure  
Sea Level Pressure 30.18 in    
Wind  
Wind Speed 2 mph (SSW)    
Max Wind Speed 8 mph    
Max Gust Speed 12 mph    
Visibility 6 miles    
Events Fog , Rain    
T = Trace of Precipitation, MM = Missing Value Source: NWS Daily Summary

Daily Weather History Graph

Daily Weather History Graph

Search for Another Location

Airport:

Trip Planner

Search our weather history database for the weather conditions in past years. The results will help you decide how hot, cold, wet, or windy it might be!

Date:

Astronomy

Aug. 21, 2013 Rise Set
Actual Time 6:39 AM EDT 8:00 PM EDT
Civil Twilight 6:12 AM EDT 8:27 PM EDT
Nautical Twilight 5:40 AM EDT 8:59 PM EDT
Astronomical Twilight 5:06 AM EDT 9:33 PM EDT
Moon 8:11 PM EDT (8/21) 7:15 AM EDT (8/21)
Length of Visible Light 14h 14m
Length of Day
13h 20m
Full, 100% of the Moon is Illuminated
Aug 21
Full
Aug 28
Last Quarter
Sep 5
New
Sep 12
First Quarter
Sep 19
Full

Hourly Weather History & Observations

Time (EDT) Temp. Heat Index Dew Point Humidity Pressure Visibility Wind Dir Wind Speed Gust Speed Precip Events Conditions
12:50 AM 69.8 °F - 68.0 °F 94% 30.21 in 2.5 mi Calm Calm - N/A   Partly Cloudy
12:53 AM 70.0 °F - 68.0 °F 93% 30.18 in 1.2 mi Calm Calm - N/A   Scattered Clouds
12:56 AM 69.8 °F - 69.8 °F 100% 30.21 in 0.8 mi Calm Calm - N/A   Mist
1:32 AM 69.8 °F - 69.8 °F 100% 30.20 in 0.2 mi Calm Calm - N/A Fog Fog
1:47 AM 69.8 °F - 68.0 °F 94% 30.20 in 0.5 mi Calm Calm - N/A Fog Fog
1:48 AM 69.1 °F - 68.0 °F 96% 30.17 in 0.5 mi Calm Calm - N/A Fog Fog
2:04 AM 69.8 °F - 66.2 °F 88% 30.20 in 1.2 mi Calm Calm - N/A   Mostly Cloudy
2:15 AM 69.8 °F - 68.0 °F 94% 30.20 in 2.5 mi Calm Calm - N/A   Mostly Cloudy
2:18 AM 69.8 °F - 68.0 °F 94% 30.20 in 3.0 mi Calm Calm - N/A   Mostly Cloudy
2:28 AM 69.8 °F - 68.0 °F 94% 30.19 in 1.8 mi Calm Calm - N/A   Mostly Cloudy
2:33 AM 69.8 °F - 68.0 °F 94% 30.19 in 0.8 mi Calm Calm - N/A   Overcast
2:48 AM 69.8 °F - 68.0 °F 94% 30.19 in 1.8 mi Calm Calm - N/A   Overcast
2:50 AM 69.8 °F - 68.0 °F 94% 30.19 in 3.0 mi Calm Calm - N/A   Mostly Cloudy
2:53 AM 69.1 °F - 68.0 °F 96% 30.16 in 5.0 mi Calm Calm - N/A   Mostly Cloudy
3:10 AM 69.8 °F - 68.0 °F 94% 30.19 in 9.0 mi Calm Calm - N/A   Partly Cloudy
3:40 AM 69.8 °F - 68.0 °F 94% 30.19 in 5.0 mi Calm Calm - N/A   Mostly Cloudy
3:53 AM 70.0 °F - 68.0 °F 93% 30.16 in 10.0 mi Calm Calm - N/A   Scattered Clouds
4:39 AM 69.8 °F - 68.0 °F 94% 30.19 in 7.0 mi Calm Calm - N/A   Mostly Cloudy
4:50 AM 69.8 °F - 68.0 °F 94% 30.19 in 8.0 mi Calm Calm - N/A   Scattered Clouds
4:53 AM 70.0 °F - 68.0 °F 93% 30.16 in 8.0 mi Calm Calm - N/A   Scattered Clouds
5:24 AM 69.8 °F - 68.0 °F 94% 30.19 in 7.0 mi Calm Calm - N/A   Overcast
5:53 AM 69.1 °F - 68.0 °F 96% 30.16 in 6.0 mi Calm Calm - N/A   Mostly Cloudy
6:17 AM 69.8 °F - 68.0 °F 94% 30.20 in 1.8 mi Calm Calm - N/A   Overcast
6:38 AM 69.8 °F - 68.0 °F 94% 30.20 in 3.0 mi Calm Calm - N/A   Overcast
6:45 AM 69.8 °F - 68.0 °F 94% 30.20 in 1.8 mi Calm Calm - N/A   Overcast
6:53 AM 69.1 °F - 68.0 °F 96% 30.17 in 0.8 mi Calm Calm - N/A   Overcast
7:10 AM 69.8 °F - 68.0 °F 94% 30.21 in 1.0 mi Calm Calm - N/A   Mist
7:14 AM 69.8 °F - 68.0 °F 94% 30.21 in 2.0 mi Calm Calm - N/A   Scattered Clouds
7:22 AM 69.8 °F - 68.0 °F 94% 30.21 in 4.0 mi Calm Calm - N/A   Partly Cloudy
7:53 AM 71.1 °F - 69.1 °F 93% 30.19 in 5.0 mi Calm Calm - N/A   Mostly Cloudy
8:53 AM 73.0 °F - 71.1 °F 93% 30.21 in 7.0 mi Calm Calm - N/A   Mostly Cloudy
9:00 AM 73.4 °F - 71.6 °F 94% 30.24 in 7.0 mi Calm Calm - N/A   Overcast
9:53 AM 75.9 °F - 71.1 °F 85% 30.21 in 9.0 mi Calm Calm - N/A   Clear
10:53 AM 78.1 °F - 71.1 °F 79% 30.22 in 10.0 mi Calm Calm - 0.00 in Rain Light Rain
11:53 AM 79.0 °F - 71.1 °F 77% 30.21 in 10.0 mi Calm Calm - 0.00 in   Mostly Cloudy
12:53 PM 81.0 °F 86.2 °F 73.9 °F 79% 30.19 in 10.0 mi SW 3.5 mph - 0.02 in   Scattered Clouds
1:53 PM 84.0 °F 91.2 °F 73.9 °F 72% 30.17 in 10.0 mi Variable 3.5 mph - N/A   Clear
2:53 PM 84.0 °F 89.6 °F 72.0 °F 67% 30.15 in 10.0 mi Variable 3.5 mph - N/A   Clear
3:53 PM 82.0 °F 87.4 °F 73.0 °F 74% 30.13 in 10.0 mi Calm Calm - N/A   Clear
4:53 PM 80.1 °F 84.5 °F 73.9 °F 81% 30.13 in 10.0 mi SSW 3.5 mph - N/A   Partly Cloudy
5:53 PM 79.0 °F - 73.0 °F 82% 30.12 in 10.0 mi South 5.8 mph - N/A   Clear
6:53 PM 77.0 °F - 73.0 °F 88% 30.11 in 10.0 mi SSW 3.5 mph - N/A   Clear
7:53 PM 75.9 °F - 73.0 °F 91% 30.09 in 10.0 mi SW 3.5 mph - N/A   Clear
8:53 PM 73.9 °F - 70.0 °F 87% 30.11 in 10.0 mi SW 4.6 mph - N/A   Clear
9:53 PM 73.0 °F - 70.0 °F 90% 30.14 in 10.0 mi Calm Calm - N/A   Clear
10:53 PM 73.0 °F - 70.0 °F 90% 30.14 in 10.0 mi SW 3.5 mph - N/A   Mostly Cloudy
11:53 PM 72.0 °F - 70.0 °F 93% 30.14 in 5.0 mi SSW 3.5 mph - 0.03 in Rain Light Rain